Tracking 22079 objects as of 5-Dec-2020
HD Live streaming from Space Station
objects crossing your sky now

APRIZESAT 5

Track APRIZESAT 5 now!
10-day predictions
APRIZESAT 5 is classified as:


NORAD ID: 37792
Int'l Code: 2011-044E
Perigee: 610.3 km
Apogee: 691.5 km
Inclination: 98.4 °
Period: 97.6 minutes
Semi major axis: 7021 km
RCS: 0.107 m2 (medium)
Launch date: August 17, 2011
Source: United States (US)
Launch site: Orenburg, Russia (OREN)
aabbcc
Your satellite tracking list
Your tracking list is empty




NASA's NSSDC Master Catalog

Two Line Element Set (TLE):
1 37792U 11044E   20340.11961509  .00000163  00000-0  31885-4 0  9998
2 37792  98.3952 185.5691 0057855 345.5164  14.4384 14.75434733500661
Source of the keplerian elements: AFSPC